TimeCST,TemperatureF,Dew PointF,Humidity,Sea Level PressureIn,VisibilityMPH,Wind Direction,Wind SpeedMPH,Gust SpeedMPH,PrecipitationIn,Events,Conditions,WindDirDegrees,DateUTC
12:53 AM,53.1,53.1,100,29.94,0.2,Calm,Calm,-,N/A,Fog,Fog,0,2012-12-07 06:53:00
1:18 AM,51.8,51.8,100,29.93,0.5,Calm,Calm,-,N/A,Fog,Fog,0,2012-12-07 07:18:00
1:49 AM,51.8,51.8,100,29.92,0.5,Calm,Calm,-,N/A,Fog,Fog,0,2012-12-07 07:49:00
1:53 AM,51.1,51.1,100,29.93,0.8,Calm,Calm,-,N/A,,Overcast,0,2012-12-07 07:53:00
2:05 AM,51.8,51.8,100,29.91,0.5,Calm,Calm,-,N/A,Fog,Fog,0,2012-12-07 08:05:00
2:12 AM,51.8,51.8,100,29.91,0.2,Calm,Calm,-,N/A,Fog,Fog,0,2012-12-07 08:12:00
2:30 AM,51.8,51.8,100,29.92,0.5,Calm,Calm,-,N/A,Fog,Fog,0,2012-12-07 08:30:00
2:51 AM,51.8,51.8,100,29.91,0.2,Calm,Calm,-,N/A,Fog,Fog,0,2012-12-07 08:51:00
2:53 AM,51.1,51.1,100,29.93,0.2,Calm,Calm,-,N/A,Fog,Fog,0,2012-12-07 08:53:00
3:53 AM,50.0,50.0,100,29.92,0.2,Calm,Calm,-,N/A,Fog,Fog,0,2012-12-07 09:53:00
4:19 AM,50.0,50.0,100,29.91,0.5,Calm,Calm,-,N/A,Fog,Fog,0,2012-12-07 10:19:00
4:26 AM,50.0,50.0,100,29.92,0.2,Calm,Calm,-,N/A,Fog,Fog,0,2012-12-07 10:26:00
4:53 AM,48.9,48.9,100,29.93,0.2,Calm,Calm,-,N/A,Fog,Fog,0,2012-12-07 10:53:00
5:39 AM,51.8,51.8,100,29.92,0.2,Calm,Calm,-,N/A,Fog,Fog,0,2012-12-07 11:39:00
6:01 AM,51.8,51.8,100,29.92,0.2,East,3.5,-,N/A,Fog,Fog,100,2012-12-07 12:01:00
6:53 AM,51.1,51.1,100,29.95,0.2,Calm,Calm,-,0.01,Fog,Fog,0,2012-12-07 12:53:00
7:00 AM,51.8,51.8,100,29.93,0.2,Calm,Calm,-,N/A,Fog,Fog,0,2012-12-07 13:00:00
7:26 AM,51.8,51.8,100,29.93,0.2,Calm,Calm,-,N/A,Fog,Fog,0,2012-12-07 13:26:00
7:53 AM,52.0,52.0,100,29.96,0.2,Calm,Calm,-,N/A,Fog,Fog,0,2012-12-07 13:53:00
8:06 AM,51.8,51.8,100,29.95,0.2,Calm,Calm,-,N/A,Fog,Fog,0,2012-12-07 14:06:00
8:53 AM,54.0,54.0,100,29.98,0.2,Calm,Calm,-,N/A,Fog,Fog,0,2012-12-07 14:53:00
9:02 AM,53.6,53.6,100,29.96,0.8,Calm,Calm,-,N/A,,Mist,0,2012-12-07 15:02:00
9:18 AM,55.4,55.4,100,29.97,1.8,ESE,3.5,-,N/A,,Overcast,120,2012-12-07 15:18:00
9:27 AM,55.4,55.4,100,29.97,3.0,SE,4.6,-,N/A,,Overcast,130,2012-12-07 15:27:00
9:53 AM,57.9,57.9,100,29.98,5.0,SE,4.6,-,N/A,,Overcast,130,2012-12-07 15:53:00
10:19 AM,59.0,59.0,100,29.96,9.0,SE,5.8,-,N/A,,Mostly Cloudy,130,2012-12-07 16:19:00
10:53 AM,64.0,59.0,84,29.96,10.0,SSE,8.1,-,N/A,,Mostly Cloudy,160,2012-12-07 16:53:00
11:53 AM,69.1,59.0,70,29.93,10.0,SE,6.9,-,N/A,,Partly Cloudy,130,2012-12-07 17:53:00
12:43 PM,71.6,60.8,69,29.89,10.0,South,4.6,-,N/A,,Mostly Cloudy,180,2012-12-07 18:43:00
12:53 PM,71.1,60.1,68,29.90,10.0,Variable,5.8,-,N/A,,Mostly Cloudy,0,2012-12-07 18:53:00
1:44 PM,73.4,60.8,65,29.86,10.0,Calm,Calm,-,N/A,,Scattered Clouds,0,2012-12-07 19:44:00
1:53 PM,72.0,60.1,66,29.87,10.0,Calm,Calm,-,N/A,,Scattered Clouds,0,2012-12-07 19:53:00
2:53 PM,73.9,60.1,62,29.86,9.0,Variable,4.6,-,N/A,,Scattered Clouds,0,2012-12-07 20:53:00
3:53 PM,73.0,59.0,61,29.86,10.0,SSW,4.6,-,N/A,,Scattered Clouds,200,2012-12-07 21:53:00
4:53 PM,70.0,57.9,65,29.87,10.0,SSE,3.5,-,N/A,,Clear,160,2012-12-07 22:53:00
5:53 PM,64.9,57.9,78,29.87,10.0,SSE,4.6,-,N/A,,Clear,150,2012-12-07 23:53:00
8:53 PM,61.0,57.9,90,29.91,10.0,Calm,Calm,-,N/A,,Clear,0,2012-12-08 02:53:00
9:53 PM,60.1,59.0,96,29.91,10.0,SE,4.6,-,N/A,,Clear,140,2012-12-08 03:53:00
10:53 PM,59.0,59.0,100,29.92,8.0,SE,3.5,-,N/A,,Clear,140,2012-12-08 04:53:00
11:53 PM,60.1,59.0,96,29.91,9.0,Calm,Calm,-,N/A,,Partly Cloudy,0,2012-12-08 05:53:00